Weather in Tamalakan

Russia / Sakha (Yakutia) Republic     63°30′52″N   120°50′11″E
temp.,
°C
wind,
m/s
gust,
m/s
humid.,
%
clouds,
%
prec.,
mm/h
press.,
hPa
HPBL,
m
22 january, sat
sat2200:00−19sw1110086 0.1 102824
03:00−19sw249975 0.1 102867
06:00−20ssw2510064 0.1 102880
09:00−23ssw27996 0.1 1028101
12:00−24sw289828 0.0 1029168
15:00−20sw399569 0.0 1028272
18:00−19sw31095100 0.0 1028287
21:00−21sw259981 0.0 102879
23 january, sun
sun2300:00−23sw2610023 0.0 102975
03:00−24sw27996 0.0 1028102
06:00−24sw38986 0.0 1027128
09:00−23sw279830 0.0 1027121
12:00−21wsw399854 0.0 1027212
15:00−20wsw26975 0.0 1027160
18:00−24wsw25996 0.0 102779
21:00−26sw2210044 0.0 102737
24 january, mon
mon2400:00−27sw2210056 0.0 102740
03:00−25sw269924 0.0 102584
06:00−25wsw289960 0.0 1025118
09:00−25wsw2610042 0.0 102482
12:00−19wsw2697100 0.0 1024146
15:00−15wsw2696100 0.3 1023255
18:00−14w3796100 0.4 1022332
21:00−15w2696100 0.9 1023294
25 january, tue
tue2500:00−16wnw259786 0.3 1023177
03:00−19nw259967 0.3 1025124
06:00−30wnw2210034 0.0 102718
09:00−32w2410038 0.0 102844
12:00−28w2499100 0.0 102897
15:00−24w2597100 0.0 1028155
18:00−25wsw2598100 0.0 1029111
21:00−31sw1110060 0.0 103010
26 january, wed
wed2600:00−32sw2110071 0.0 102917
03:00−32sw2310061 0.0 102933
06:00−30sw2410045 0.0 102953
09:00−29sw269927 0.0 102986
12:00−25sw39976 0.0 1029195
15:00−21sw310955 0.0 1028280
18:00−22sw312955 0.0 1028270
21:00−22sw4129344 0.0 1028328